Latest Weather Observations for Nhill Aerodrome

IDV60801

Issued at 9:02 am EDT Thursday 29 January 2015 (issued every 30 minutes, with the page automatically refreshed every 10 minutes)

About weather observations | Map of weather stations | Latest weather observations for VIC | Other Formats
Station Details ID: 078015 Name: NHILL AERODROME Lat: -36.31 Lon: 141.65 Height: 138.9 m
Data from the previous 72 hours. | See also: Recent months at Nhill Aerodrome
Date/Time
EDT
Temp
°C
App
Temp
°C
Dew
Point
Rel
Hum
%
Delta-T
°C
Wind Press
QNH
hPa
Press
MSL
hPa
Rain
since 9 am
mm
Dir
 
Spd
km/h
Gust
km/h
Spd
kts
Gust
kts
29/08:30am 15.9 9.9 6.9 55 4.4 SE 28 37 15 20 1019.2 1018.7 0.0
29/08:00am 14.8 9.7 7.6 62 3.6 SE 24 35 13 19 1019.0 1018.5 0.0
29/07:30am 12.1 8.4 7.8 75 2.1 SE 17 22 9 12 1018.7 1018.2 0.0
29/07:00am 10.6 6.8 7.7 82 1.4 SSE 17 19 9 10 1018.4 1017.9 0.0
29/06:30am 10.3 6.4 7.2 81 1.5 SSE 17 20 9 11 1018.1 1017.6 0.0
29/06:00am 10.8 6.5 7.1 78 1.8 SSE 19 22 10 12 1017.7 1017.2 0.0
29/05:30am 11.0 6.4 6.7 75 2.0 SSE 20 24 11 13 1017.6 1017.1 0.0
29/05:00am 11.0 7.3 6.2 72 2.3 SSE 15 19 8 10 1017.4 1016.9 0.0
29/04:30am 11.6 6.9 5.9 68 2.7 SSE 20 26 11 14 1017.2 1016.7 0.0
29/04:00am 12.2 7.6 5.6 64 3.1 SE 19 24 10 13 1017.3 1016.8 0.0
29/03:30am 12.4 7.5 5.1 61 3.4 SE 20 26 11 14 1017.2 1016.7 0.0
29/03:00am 13.0 7.6 4.7 57 3.8 SE 22 30 12 16 1017.1 1016.6 0.0
29/02:30am 13.9 9.2 5.0 55 4.2 SE 19 24 10 13 1017.3 1016.8 0.0
29/02:00am 15.1 9.1 5.3 52 4.7 SE 26 32 14 17 1017.4 1016.9 0.0
29/01:30am 15.8 8.4 5.1 49 5.1 SE 33 43 18 23 1017.4 1016.9 0.0
29/01:00am 16.3 9.9 5.3 48 5.3 SE 28 35 15 19 1017.5 1017.0 0.0
29/12:30am 16.8 10.6 6.0 49 5.3 SE 28 43 15 23 1017.7 1017.2 0.0
29/12:00am 17.5 11.3 6.1 47 5.6 SE 28 41 15 22 1017.7 1017.2 0.0
 
Date/Time
EDT
Temp
°C
App
Temp
°C
Dew
Point
Rel
Hum
%
Delta-T
°C
Wind Press
QNH
hPa
Press
MSL
hPa
Rain
since 9 am
mm
Dir
 
Spd
km/h
Gust
km/h
Spd
kts
Gust
kts
28/11:30pm 18.3 12.6 6.5 46 5.9 SE 26 37 14 20 1017.6 1017.1 0.0
28/11:00pm 19.2 13.3 6.0 42 6.6 SE 26 35 14 19 1017.4 1016.9 0.0
28/10:30pm 19.9 13.9 5.5 39 7.1 SE 26 35 14 19 1017.1 1016.6 0.0
28/10:00pm 20.8 14.4 5.2 36 7.7 SE 28 35 15 19 1016.9 1016.4 0.0
28/09:30pm 21.7 14.9 5.2 34 8.2 SE 30 43 16 23 1016.4 1015.8 0.0
28/09:00pm 22.6 16.6 5.5 33 8.6 SE 26 37 14 20 1016.0 1015.4 0.0
28/08:30pm 23.8 16.8 6.1 32 9.1 SE 32 43 17 23 1015.6 1015.0 0.0
28/08:00pm 24.9 18.3 6.1 30 9.7 SE 30 39 16 21 1015.2 1014.6 0.0
28/07:30pm 25.8 18.6 5.9 28 10.3 SE 33 44 18 24 1014.7 1014.1 0.0
28/07:00pm 26.5 19.4 5.5 26 10.9 SE 32 44 17 24 1014.5 1013.9 0.0
28/06:30pm 27.2 20.6 4.3 23 11.6 SE 28 39 15 21 1014.3 1013.7 0.0
28/05:30pm 28.5 22.1 5.4 23 12.1 SE 28 37 15 20 1014.4 1013.8 0.0
28/05:00pm 27.6 21.8 4.6 23 11.8 SE 24 35 13 19 1014.3 1013.7 0.0
28/04:30pm 27.9 21.7 4.2 22 12.1 SE 26 37 14 20 1014.5 1013.9 0.0
28/04:14pm 27.4 20.9 4.5 23 11.7 SSE 28 46 15 25 1014.6 1014.0 0.0
28/04:00pm 27.6 21.3 4.0 22 12.0 ESE 26 43 14 23 1014.6 1014.0 0.0
28/03:30pm 27.2 20.4 3.0 21 12.0 SSE 28 37 15 20 1015.0 1014.4 0.0
28/03:00pm 26.8 20.5 4.0 23 11.5 SE 26 44 14 24 1015.3 1014.7 0.0
28/02:30pm 25.9 20.2 4.9 26 10.7 SE 24 35 13 19 1015.6 1015.0 0.0
28/02:00pm 25.7 20.4 4.8 26 10.6 SSE 22 35 12 19 1015.8 1015.2 0.0
28/01:30pm 24.1 18.5 5.5 30 9.5 SSE 24 37 13 20 1016.1 1015.5 0.0
28/01:00pm 23.3 18.0 5.2 31 9.1 SE 22 32 12 17 1016.6 1016.0 0.0
28/12:30pm 22.1 17.4 5.1 33 8.5 SE 19 26 10 14 1016.8 1016.3 0.0
28/12:00pm 21.6 16.5 5.9 36 7.9 SSE 22 32 12 17 1017.0 1016.5 0.0
28/11:30am 20.7 15.1 5.5 37 7.6 SSE 24 37 13 20 1017.3 1016.8 0.0
28/11:00am 20.1 14.6 6.1 40 7.0 SE 24 35 13 19 1017.4 1016.9 0.0
28/10:30am 18.6 13.5 6.1 44 6.2 SSE 22 35 12 19 1017.7 1017.2 0.0
28/10:00am 17.5 12.1 6.4 48 5.5 SSE 24 32 13 17 1017.6 1017.1 0.0
28/09:30am 16.7 11.1 5.6 48 5.4 SE 24 32 13 17 1017.5 1017.0 0.0
28/09:00am 15.1 9.7 6.4 56 4.2 SSE 24 30 13 16 1017.4 1016.9 0.0
28/08:30am 13.4 8.0 6.3 62 3.4 SSE 24 35 13 19 1017.1 1016.6 0.0
28/08:00am 11.5 7.9 6.6 72 2.3 SSE 15 20 8 11 1016.9 1016.4 0.0
28/07:30am 9.3 5.9 6.0 80 1.5 S 13 17 7 9 1016.6 1016.0 0.0
28/07:00am 8.0 4.6 5.8 86 1.0 S 13 15 7 8 1016.5 1015.9 0.0
28/06:30am 7.8 4.3 5.6 86 1.0 SSE 13 15 7 8 1016.3 1015.7 0.0
28/06:00am 8.1 4.7 5.7 85 1.1 SSE 13 13 7 7 1016.2 1015.6 0.0
28/05:30am 8.5 5.5 5.8 83 1.2 S 11 15 6 8 1016.3 1015.7 0.0
28/05:00am 8.7 5.3 5.8 82 1.3 S 13 13 7 7 1016.1 1015.5 0.0
28/04:30am 9.2 5.8 5.9 80 1.5 S 13 15 7 8 1016.0 1015.4 0.0
28/04:00am 10.1 6.4 6.1 76 1.9 S 15 19 8 10 1016.0 1015.4 0.0
28/03:30am 10.9 6.9 6.5 74 2.1 S 17 22 9 12 1016.3 1015.7 0.0
28/03:00am 10.6 6.9 6.2 74 2.1 S 15 19 8 10 1016.7 1016.1 0.0
28/02:30am 11.3 7.2 6.2 71 2.4 S 17 20 9 11 1016.7 1016.1 0.0
28/02:00am 11.7 7.2 6.2 69 2.6 S 19 26 10 14 1016.7 1016.1 0.0
28/01:30am 12.3 7.6 5.9 65 3.0 S 20 28 11 15 1016.9 1016.4 0.0
28/01:00am 12.8 8.1 5.9 63 3.3 S 20 28 11 15 1016.8 1016.3 0.0
28/12:30am 13.3 7.5 6.2 62 3.4 SSE 26 35 14 19 1016.7 1016.1 0.0
28/12:00am 13.9 7.4 6.5 61 3.6 S 30 35 16 19 1016.8 1016.3 0.0
 
Date/Time
EDT
Temp
°C
App
Temp
°C
Dew
Point
Rel
Hum
%
Delta-T
°C
Wind Press
QNH
hPa
Press
MSL
hPa
Rain
since 9 am
mm
Dir
 
Spd
km/h
Gust
km/h
Spd
kts
Gust
kts
27/11:30pm 14.4 8.7 6.5 59 3.8 SSE 26 33 14 18 1016.9 1016.4 0.0
27/11:00pm 14.8 9.2 5.6 54 4.4 SSE 24 32 13 17 1017.0 1016.5 0.0
27/10:30pm 15.3 9.3 5.2 51 4.8 SSE 26 35 14 19 1016.8 1016.3 0.0
27/10:00pm 16.0 10.0 5.3 49 5.1 SSE 26 33 14 18 1016.6 1016.0 0.0
27/09:30pm 16.6 9.9 5.6 48 5.3 SSE 30 43 16 23 1016.2 1015.6 0.0
27/09:00pm 17.3 10.6 5.6 46 5.7 SSE 30 39 16 21 1015.8 1015.2 0.0
27/08:30pm 18.6 10.2 5.8 43 6.3 SSE 39 50 21 27 1015.6 1015.0 0.0
27/08:00pm 19.7 11.7 5.7 40 6.9 S 37 46 20 25 1015.3 1014.7 0.0
27/07:30pm 21.0 13.1 6.2 38 7.5 SSE 37 46 20 25 1014.9 1014.3 0.0
27/07:00pm 22.1 15.0 6.3 36 8.1 SSE 33 43 18 23 1014.5 1013.9 0.0
27/06:30pm 22.4 14.9 6.2 35 8.3 SSE 35 44 19 24 1014.1 1013.5 0.0
27/06:00pm 22.1 14.1 5.5 34 8.3 SSE 37 52 20 28 1014.0 1013.4 0.0
27/05:34pm 23.0 14.9 5.4 32 8.9 S 37 56 20 30 1013.9 1013.3 0.0
27/05:30pm 23.1 15.2 6.0 33 8.7 S 37 54 20 29 1013.9 1013.3 0.0
27/05:27pm 23.3 15.7 5.7 32 9.0 S 35 54 19 29 1013.9 1013.3 0.0
27/05:00pm 23.5 15.8 5.4 31 9.2 SSE 35 48 19 26 1014.0 1013.4 0.0
27/04:30pm 23.6 16.6 6.0 32 9.0 S 32 43 17 23 1013.9 1013.3 0.0
27/04:13pm 23.8 16.2 5.7 31 9.2 S 35 54 19 29 1013.7 1013.1 0.0
27/04:00pm 24.6 17.3 5.4 29 9.8 S 33 48 18 26 1013.9 1013.3 0.0
27/03:36pm 25.1 18.8 5.8 29 9.9 S 28 46 15 25 1014.3 1013.7 0.0
27/03:30pm 23.9 17.6 5.8 31 9.3 S 28 43 15 23 1014.4 1013.8 0.0
27/03:00pm 22.8 16.4 5.3 32 8.8 S 28 46 15 25 1014.7 1014.1 0.0
27/02:55pm 23.6 17.3 5.5 31 9.2 S 28 46 15 25 1014.7 1014.1 0.0
27/02:30pm 23.3 16.8 4.8 30 9.3 S 28 44 15 24 1014.9 1014.3 0.0
27/02:00pm 22.8 15.6 4.8 31 9.0 SSE 32 48 17 26 1015.4 1014.8 0.0
27/01:42pm 21.6 14.7 4.7 33 8.3 SSE 30 48 16 26 1015.6 1015.0 0.0
27/01:30pm 21.4 14.9 4.5 33 8.3 SSE 28 41 15 22 1015.6 1015.0 0.0
27/01:00pm 21.9 14.9 5.8 35 8.1 S 32 48 17 26 1016.0 1015.4 0.0
27/12:30pm 20.1 13.3 5.0 37 7.4 SSE 30 43 16 23 1016.4 1015.8 0.0
27/12:00pm 19.5 12.8 5.6 40 6.9 SSE 30 43 16 23 1017.0 1016.5 0.0
27/11:30am 18.8 12.3 4.9 40 6.8 SSE 28 37 15 20 1017.1 1016.6 0.0
27/11:00am 18.0 11.6 5.2 43 6.2 S 28 35 15 19 1017.3 1016.8 0.0
27/10:30am 17.2 11.2 5.2 45 5.8 SSE 26 33 14 18 1017.5 1017.0 0.0
27/10:00am 15.8 10.2 5.4 50 5.0 S 24 32 13 17 1017.8 1017.3 0.0
27/09:30am 15.6 11.1 6.3 54 4.5 SSE 19 28 10 15 1017.8 1017.3 0.0
27/09:00am 14.1 10.1 6.7 61 3.6 S 17 22 9 12 1017.8 1017.3 0.0
27/08:30am 12.7 8.4 7.2 69 2.7 SSE 19 22 10 12 1017.7 1017.2 0.0
27/08:00am 11.1 7.6 7.2 77 1.9 S 15 20 8 11 1017.5 1017.0 0.0
27/07:30am 9.8 7.4 7.2 84 1.2 S 9 11 5 6 1017.2 1016.7 0.0
27/07:00am 8.6 5.4 6.7 88 0.9 S 13 15 7 8 1017.0 1016.5 0.0
27/06:30am 7.9 4.9 6.0 88 0.9 SSE 11 13 6 7 1016.6 1016.0 0.0
27/06:00am 8.8 5.2 6.6 86 1.0 SSE 15 17 8 9 1016.4 1015.8 0.0
27/05:30am 9.2 5.6 6.6 84 1.2 SSE 15 17 8 9 1016.4 1015.8 0.0
27/05:00am 9.7 5.7 6.6 81 1.5 S 17 22 9 12 1016.3 1015.7 0.0
27/04:30am 9.9 6.2 6.4 79 1.6 S 15 20 8 11 1016.2 1015.6 0.0
27/04:00am 10.0 6.7 6.2 77 1.8 S 13 17 7 9 1016.3 1015.7 0.0
27/03:30am 10.5 6.8 6.1 74 2.1 S 15 19 8 10 1016.6 1016.0 0.0
27/03:00am 10.9 6.7 5.9 71 2.3 SSE 17 20 9 11 1016.7 1016.1 0.0
27/02:30am 11.3 7.1 5.8 69 2.6 S 17 20 9 11 1016.7 1016.1 0.0
27/02:00am 11.9 7.3 5.5 65 3.0 S 19 24 10 13 1016.9 1016.4 0.0
27/01:30am 12.6 8.0 5.5 62 3.3 S 19 24 10 13 1017.0 1016.5 0.0
27/01:00am 13.0 8.2 5.4 60 3.6 SSE 20 28 11 15 1017.1 1016.6 0.0
27/12:30am 13.5 8.3 5.4 58 3.8 SSE 22 28 12 15 1017.0 1016.5 0.0
27/12:00am 14.0 8.0 5.4 56 4.1 SSE 26 35 14 19 1016.9 1016.4 0.0
 
Date/Time
EDT
Temp
°C
App
Temp
°C
Dew
Point
Rel
Hum
%
Delta-T
°C
Wind Press
QNH
hPa
Press
MSL
hPa
Rain
since 9 am
mm
Dir
 
Spd
km/h
Gust
km/h
Spd
kts
Gust
kts
26/11:30pm 14.6 8.6 5.1 53 4.5 SSE 26 35 14 19 1016.8 1016.3 0.0
26/11:00pm 15.0 8.9 5.0 51 4.7 SSE 26 32 14 17 1016.9 1016.4 0.0
26/10:30pm 15.5 9.8 4.8 49 5.1 S 24 33 13 18 1016.9 1016.4 0.0
26/10:00pm 16.1 10.4 5.1 48 5.3 SSE 24 32 13 17 1016.7 1016.1 0.0
26/09:30pm 16.7 11.1 5.3 47 5.5 SSE 24 28 13 15 1016.4 1015.8 0.0
26/09:00pm 17.4 10.6 5.0 44 6.0 S 30 37 16 20 1016.1 1015.5 0.0
26/08:30pm 18.8 11.8 4.2 38 7.0 S 30 39 16 21 1015.7 1015.1 0.0
26/08:00pm 19.6 12.6 4.1 36 7.4 S 30 37 16 20 1015.5 1014.9 0.0
26/07:30pm 21.0 15.1 3.7 32 8.3 S 24 33 13 18 1015.1 1014.5 0.0
26/07:00pm 21.3 14.6 3.5 31 8.6 S 28 39 15 21 1014.7 1014.1 0.0
26/06:30pm 22.0 15.3 3.6 30 8.9 SSW 28 39 15 21 1014.3 1013.7 0.0
26/06:00pm 22.4 17.7 3.0 28 9.3 SSW 17 30 9 16 1014.3 1013.7 0.0
26/05:30pm 22.0 16.8 2.2 27 9.3 SSE 19 26 10 14 1014.7 1014.1 0.0
26/05:00pm 22.4 17.7 3.0 28 9.3 SSE 17 35 9 19 1014.7 1014.1 0.0
26/04:30pm 21.7 16.2 1.9 27 9.3 S 20 33 11 18 1014.9 1014.3 0.0
26/04:00pm 21.7 15.8 1.4 26 9.4 S 22 37 12 20 1015.1 1014.5 0.0
26/03:30pm 21.5 17.0 2.2 28 9.1 S 15 39 8 21 1015.3 1014.7 0.0
26/03:00pm 20.7 15.2 1.6 28 8.8 SW 20 35 11 19 1015.5 1014.9 0.0
26/02:30pm 21.4 16.5 2.2 28 9.0 SSW 17 33 9 18 1015.6 1015.0 0.0
26/02:00pm 19.8 14.3 1.7 30 8.3 SSW 20 33 11 18 1016.1 1015.5 0.0
26/01:30pm 20.2 15.4 2.5 31 8.3 SSE 17 33 9 18 1016.3 1015.7 0.0
26/01:00pm 19.4 13.7 2.7 33 7.8 S 22 35 12 19 1016.6 1016.0 0.0
26/12:30pm 18.3 13.9 2.6 35 7.3 SSW 15 26 8 14 1017.1 1016.6 0.0
26/12:00pm 17.6 13.6 2.8 37 6.8 S 13 26 7 14 1017.3 1016.8 0.0
26/11:30am 16.7 11.9 2.7 39 6.4 SSW 17 26 9 14 1017.6 1017.1 0.0
26/11:00am 16.5 11.9 3.6 42 6.0 S 17 28 9 15 1017.6 1017.1 0.0
26/10:30am 16.3 11.3 3.7 43 5.9 SSE 19 24 10 13 1018.0 1017.5 0.0
26/10:00am 15.8 11.5 5.4 50 5.0 S 17 26 9 14 1018.0 1017.5 0.0
26/09:30am 14.9 10.6 5.4 53 4.5 SSE 17 24 9 13 1018.2 1017.7 0.0

Other Formats:

Comma delimited format used in spreadsheet applications
http://www.bom.gov.au/fwo/IDV60801/IDV60801.94827.axf

JavaScript Object Notation format (JSON) in row-major order
http://www.bom.gov.au/fwo/IDV60801/IDV60801.94827.json